User: anonymous
Location: Columbia
(38.9520°N, 92.3340°W)
Time: 16:50:56
(UTC-05:00)
Language:

SJ-11-01 - Orbit

View from above orbital plane
View from above orbital plane
View from above satellite
View from above satellite

Ground track
Ground track

The orbit data is extracted from the following two-line orbital elements,

1 36088U 09061A   14262.54478396  .00000583  00000-0  13035-3 0  3942
2 36088 098.0258 307.9585 0011969 139.5446 220.6649 14.60132692258507
Epoch (UTC): 19 September 2014 13:04:29
Eccentricity: 0.0011969
inclination: 98.0258°
perigee height: 684 km
apogee height: 701 km
right ascension of ascending node: 307.9585°
argument of perigee: 139.5446°
revolutions per day: 14.60132692
mean anomaly at epoch: 220.6649°
orbit number at epoch: 25850

The dashed part of the orbit path shows where the satellite is in the earth's shadow,  

DLR